Time,TemperatureF,DewpointF,PressureIn,WindDirection,WindDirectionDegrees,WindSpeedMPH,WindSpeedGustMPH,Humidity,HourlyPrecipIn,Conditions,Clouds,dailyrainin,SoftwareType,DateUTC
2013-01-13 00:02:00,8.0,1.0,-100.00,North,350,2.0,4.0,70,0.00,,,-99.99,,2013-01-13 07:02:00,
2013-01-13 00:12:00,8.0,0.0,-100.00,NNW,335,4.0,4.0,69,0.00,,,-99.99,,2013-01-13 07:12:00,
2013-01-13 00:22:00,8.0,0.0,-100.00,North,350,2.0,5.0,69,0.00,,,-99.99,,2013-01-13 07:22:00,
2013-01-13 00:32:00,8.0,0.0,-100.00,NNW,340,4.0,4.0,69,0.00,,,-99.99,,2013-01-13 07:32:00,
2013-01-13 00:42:00,8.0,0.0,-100.00,NNW,335,4.0,6.0,69,0.00,,,-99.99,,2013-01-13 07:42:00,
2013-01-13 00:52:00,8.0,0.0,-100.00,NW,325,6.0,7.0,69,0.00,,,-99.99,,2013-01-13 07:52:00,
2013-01-13 01:02:00,8.0,0.0,-100.00,NNW,330,6.0,7.0,69,0.00,,,-99.99,,2013-01-13 08:02:00,
2013-01-13 01:11:00,8.0,0.0,-100.00,NNW,335,6.0,8.0,69,0.00,,,-99.99,,2013-01-13 08:11:00,
2013-01-13 01:22:00,8.0,0.0,-100.00,NNW,345,6.0,8.0,69,0.00,,,-99.99,,2013-01-13 08:22:00,
2013-01-13 01:32:00,8.0,0.0,-100.00,NNW,340,4.0,9.0,68,0.00,,,-99.99,,2013-01-13 08:32:00,
2013-01-13 01:42:00,8.0,0.0,-100.00,North,355,5.0,7.0,68,0.00,,,-99.99,,2013-01-13 08:42:00,
2013-01-13 01:52:00,8.0,-1.0,-100.00,NNW,330,7.0,9.0,67,0.00,,,-99.99,,2013-01-13 08:52:00,
2013-01-13 02:02:00,8.0,0.0,-100.00,NW,325,7.0,9.0,67,0.00,,,-99.99,,2013-01-13 09:02:00,
2013-01-13 02:12:00,8.0,-1.0,-100.00,NNW,330,6.0,11.0,67,0.00,,,-99.99,,2013-01-13 09:12:00,
2013-01-13 02:22:00,8.0,-1.0,-100.00,NNW,330,6.0,9.0,67,0.00,,,-99.99,,2013-01-13 09:22:00,
2013-01-13 02:32:00,8.0,-1.0,-100.00,NNW,335,7.0,9.0,67,0.00,,,-99.99,,2013-01-13 09:32:00,
2013-01-13 02:42:00,8.0,-1.0,-100.00,NNW,330,7.0,9.0,67,0.00,,,-99.99,,2013-01-13 09:42:00,
2013-01-13 02:52:00,8.0,0.0,-100.00,NW,325,9.0,11.0,68,0.00,,,-99.99,,2013-01-13 09:52:00,
2013-01-13 03:02:00,8.0,0.0,-100.00,NW,325,4.0,8.0,68,0.00,,,-99.99,,2013-01-13 10:02:00,
2013-01-13 03:11:00,8.0,0.0,-100.00,NNW,330,4.0,7.0,68,0.00,,,-99.99,,2013-01-13 10:11:00,
2013-01-13 03:22:00,8.0,0.0,-100.00,NNW,335,6.0,7.0,68,0.00,,,-99.99,,2013-01-13 10:22:00,
2013-01-13 03:32:00,8.0,0.0,-100.00,NNW,330,5.0,7.0,68,0.00,,,-99.99,,2013-01-13 10:32:00,
2013-01-13 03:42:00,8.0,0.0,-100.00,NNW,340,5.0,9.0,67,0.00,,,-99.99,,2013-01-13 10:42:00,
2013-01-13 03:52:00,8.0,0.0,-100.00,NNW,340,4.0,7.0,67,0.00,,,-99.99,,2013-01-13 10:52:00,
2013-01-13 04:02:00,8.0,0.0,-100.00,NNW,335,5.0,7.0,67,0.00,,,-99.99,,2013-01-13 11:02:00,
2013-01-13 04:12:00,8.0,0.0,-100.00,NW,325,4.0,8.0,67,0.00,,,-99.99,,2013-01-13 11:12:00,
2013-01-13 04:22:00,9.0,0.0,-100.00,NW,325,4.0,7.0,67,0.00,,,-99.99,,2013-01-13 11:22:00,
2013-01-13 04:32:00,9.0,0.0,-100.00,NNW,330,6.0,7.0,67,0.00,,,-99.99,,2013-01-13 11:32:00,
2013-01-13 04:42:00,9.0,1.0,-100.00,NW,320,6.0,9.0,67,0.00,,,-99.99,,2013-01-13 11:42:00,
2013-01-13 04:52:00,9.0,1.0,-100.00,NW,320,6.0,9.0,67,0.00,,,-99.99,,2013-01-13 11:52:00,
2013-01-13 05:02:00,9.0,1.0,-100.00,NNW,335,6.0,11.0,69,0.00,,,-99.99,,2013-01-13 12:02:00,
2013-01-13 05:12:00,9.0,1.0,-100.00,NNW,345,6.0,11.0,70,0.10,,,-99.99,,2013-01-13 12:12:00,
2013-01-13 05:22:00,9.0,2.0,-100.00,NW,325,7.0,10.0,71,0.00,,,-99.99,,2013-01-13 12:22:00,
2013-01-13 05:32:00,9.0,2.0,-100.00,NNW,330,7.0,9.0,72,0.00,,,-99.99,,2013-01-13 12:32:00,
2013-01-13 05:42:00,9.0,2.0,-100.00,NNW,330,7.0,9.0,73,0.00,,,-99.99,,2013-01-13 12:42:00,
2013-01-13 05:52:00,8.0,2.0,-100.00,North,350,5.0,11.0,74,0.10,,,-99.99,,2013-01-13 12:52:00,
2013-01-13 06:02:00,9.0,2.0,-100.00,NNW,340,6.0,11.0,74,0.00,,,-99.99,,2013-01-13 13:02:00,
2013-01-13 06:12:00,9.0,2.0,-100.00,NNW,345,6.0,11.0,74,0.00,,,-99.99,,2013-01-13 13:12:00,
2013-01-13 06:22:00,8.0,2.0,-100.00,North,0,7.0,12.0,75,0.00,,,-99.99,,2013-01-13 13:22:00,
2013-01-13 06:32:00,9.0,2.0,-100.00,North,0,6.0,12.0,75,0.00,,,-99.99,,2013-01-13 13:32:00,
2013-01-13 06:42:00,9.0,3.0,-100.00,NNW,345,7.0,12.0,75,0.00,,,-99.99,,2013-01-13 13:42:00,
2013-01-13 06:53:00,9.0,3.0,-100.00,North,5,7.0,12.0,76,0.00,,,-99.99,,2013-01-13 13:53:00,
2013-01-13 07:02:00,8.0,3.0,-100.00,NNW,335,7.0,13.0,76,0.00,,,-99.99,,2013-01-13 14:02:00,
2013-01-13 07:12:00,9.0,3.0,-100.00,North,355,6.0,11.0,77,0.00,,,-99.99,,2013-01-13 14:12:00,
2013-01-13 07:22:00,9.0,3.0,-100.00,North,350,7.0,11.0,77,0.10,,,-99.99,,2013-01-13 14:22:00,
2013-01-13 07:33:00,8.0,3.0,-100.00,North,0,6.0,9.0,78,0.10,,,-99.99,,2013-01-13 14:33:00,
2013-01-13 07:42:00,9.0,3.0,-100.00,North,5,5.0,9.0,78,0.00,,,-99.99,,2013-01-13 14:42:00,
2013-01-13 07:52:00,8.0,3.0,-100.00,North,0,5.0,10.0,78,0.10,,,-99.99,,2013-01-13 14:52:00,
2013-01-13 08:02:00,8.0,3.0,-100.00,North,0,6.0,9.0,78,0.10,,,-99.99,,2013-01-13 15:02:00,
2013-01-13 08:12:00,9.0,4.0,-100.00,NNW,330,7.0,10.0,78,0.10,,,-99.99,,2013-01-13 15:12:00,
2013-01-13 08:22:00,9.0,4.0,-100.00,NNW,330,7.0,11.0,79,0.00,,,-99.99,,2013-01-13 15:22:00,
2013-01-13 08:33:00,9.0,4.0,-100.00,NNW,345,6.0,10.0,79,0.00,,,-99.99,,2013-01-13 15:33:00,
2013-01-13 08:42:00,10.0,4.0,-100.00,NNW,335,7.0,11.0,79,0.10,,,-99.99,,2013-01-13 15:42:00,
2013-01-13 08:52:00,10.0,5.0,-100.00,NNW,330,7.0,11.0,80,0.10,,,-99.99,,2013-01-13 15:52:00,
2013-01-13 09:03:00,10.0,5.0,-100.00,North,0,6.0,12.0,80,0.00,,,-99.99,,2013-01-13 16:03:00,
2013-01-13 09:12:00,10.0,5.0,-100.00,NNW,340,4.0,7.0,80,0.00,,,-99.99,,2013-01-13 16:12:00,
2013-01-13 09:22:00,10.0,5.0,-100.00,North,0,4.0,9.0,79,0.00,,,-99.99,,2013-01-13 16:22:00,
2013-01-13 09:33:00,11.0,6.0,-100.00,North,350,5.0,9.0,79,0.00,,,-99.99,,2013-01-13 16:33:00,
2013-01-13 09:42:00,11.0,6.0,-100.00,NNW,340,6.0,10.0,78,0.00,,,-99.99,,2013-01-13 16:42:00,
2013-01-13 09:52:00,12.0,6.0,-100.00,NNW,340,6.0,10.0,78,0.00,,,-99.99,,2013-01-13 16:52:00,
2013-01-13 10:03:00,12.0,6.0,-100.00,North,0,6.0,11.0,78,0.00,,,-99.99,,2013-01-13 17:03:00,
2013-01-13 10:12:00,12.0,6.0,-100.00,North,0,6.0,12.0,78,0.00,,,-99.99,,2013-01-13 17:12:00,
2013-01-13 10:22:00,12.0,6.0,-100.00,North,0,6.0,12.0,77,0.00,,,-99.99,,2013-01-13 17:22:00,
2013-01-13 10:33:00,13.0,7.0,-100.00,North,0,6.0,11.0,77,0.00,,,-99.99,,2013-01-13 17:33:00,
2013-01-13 10:42:00,13.0,7.0,-100.00,North,0,7.0,10.0,76,0.00,,,-99.99,,2013-01-13 17:42:00,
2013-01-13 10:53:00,13.0,7.0,-100.00,North,0,8.0,14.0,76,0.00,,,-99.99,,2013-01-13 17:53:00,
2013-01-13 11:02:00,14.0,8.0,-100.00,North,0,6.0,11.0,76,0.00,,,-99.99,,2013-01-13 18:02:00,
2013-01-13 11:12:00,15.0,8.0,-100.00,North,0,6.0,12.0,75,0.00,,,-99.99,,2013-01-13 18:12:00,
2013-01-13 11:22:00,15.0,8.0,-100.00,North,0,7.0,10.0,74,0.00,,,-99.99,,2013-01-13 18:22:00,
2013-01-13 11:32:00,15.0,8.0,-100.00,NW,325,6.0,10.0,74,0.00,,,-99.99,,2013-01-13 18:32:00,
2013-01-13 11:42:00,17.0,10.0,-100.00,NNW,330,6.0,10.0,73,0.00,,,-99.99,,2013-01-13 18:42:00,
2013-01-13 11:53:00,17.0,9.0,-100.00,NNW,335,6.0,11.0,71,0.00,,,-99.99,,2013-01-13 18:53:00,
2013-01-13 12:02:00,18.0,10.0,-100.00,NNW,340,6.0,9.0,70,0.00,,,-99.99,,2013-01-13 19:02:00,
2013-01-13 12:12:00,20.0,12.0,-100.00,NW,310,4.0,7.0,68,0.00,,,-99.99,,2013-01-13 19:12:00,
2013-01-13 12:22:00,20.0,11.0,-100.00,North,0,5.0,9.0,65,0.00,,,-99.99,,2013-01-13 19:22:00,
2013-01-13 12:33:00,20.0,10.0,-100.00,NNW,345,4.0,11.0,64,0.00,,,-99.99,,2013-01-13 19:33:00,
2013-01-13 12:42:00,20.0,10.0,-100.00,NNW,330,6.0,11.0,63,0.00,,,-99.99,,2013-01-13 19:42:00,
2013-01-13 12:52:00,20.0,9.0,-100.00,NNW,335,5.0,9.0,62,0.00,,,-99.99,,2013-01-13 19:52:00,
2013-01-13 13:02:00,20.0,9.0,-100.00,NNW,340,4.0,8.0,62,0.00,,,-99.99,,2013-01-13 20:02:00,
2013-01-13 13:12:00,20.0,9.0,-100.00,NE,40,2.0,6.0,61,0.00,,,-99.99,,2013-01-13 20:12:00,
2013-01-13 13:22:00,21.0,9.0,-100.00,South,180,7.0,9.0,60,0.00,,,-99.99,,2013-01-13 20:22:00,
2013-01-13 13:32:00,20.0,9.0,-100.00,South,190,6.0,9.0,60,0.00,,,-99.99,,2013-01-13 20:32:00,
2013-01-13 13:43:00,20.0,9.0,-100.00,South,180,6.0,8.0,61,0.00,,,-99.99,,2013-01-13 20:43:00,
2013-01-13 13:52:00,20.0,10.0,-100.00,SSW,200,6.0,10.0,62,0.00,,,-99.99,,2013-01-13 20:52:00,
2013-01-13 14:02:00,21.0,10.0,-100.00,SSW,195,7.0,11.0,62,0.00,,,-99.99,,2013-01-13 21:02:00,
2013-01-13 14:12:00,21.0,10.0,-100.00,SSW,210,8.0,12.0,62,0.00,,,-99.99,,2013-01-13 21:12:00,
2013-01-13 14:22:00,20.0,9.0,-100.00,South,170,9.0,11.0,62,0.00,,,-99.99,,2013-01-13 21:22:00,
2013-01-13 14:32:00,20.0,9.0,-100.00,South,185,4.0,12.0,62,0.00,,,-99.99,,2013-01-13 21:32:00,
2013-01-13 14:42:00,20.0,9.0,-100.00,South,175,4.0,9.0,62,0.00,,,-99.99,,2013-01-13 21:42:00,
2013-01-13 14:52:00,20.0,9.0,-100.00,SSW,195,6.0,10.0,62,0.00,,,-99.99,,2013-01-13 21:52:00,
2013-01-13 15:02:00,19.0,9.0,-100.00,South,170,5.0,7.0,62,0.00,,,-99.99,,2013-01-13 22:02:00,
2013-01-13 15:12:00,20.0,10.0,-100.00,South,190,4.0,7.0,62,0.00,,,-99.99,,2013-01-13 22:12:00,
2013-01-13 15:22:00,19.0,8.0,-100.00,South,175,7.0,9.0,63,0.00,,,-99.99,,2013-01-13 22:22:00,
2013-01-13 15:33:00,19.0,8.0,-100.00,SSE,165,4.0,7.0,63,0.00,,,-99.99,,2013-01-13 22:33:00,
2013-01-13 15:42:00,19.0,8.0,-100.00,South,170,5.0,7.0,63,0.00,,,-99.99,,2013-01-13 22:42:00,
2013-01-13 15:52:00,18.0,8.0,-100.00,SE,140,4.0,6.0,64,0.00,,,-99.99,,2013-01-13 22:52:00,
2013-01-13 16:02:00,18.0,8.0,-100.00,SSE,150,6.0,7.0,64,0.00,,,-99.99,,2013-01-13 23:02:00,
2013-01-13 16:12:00,18.0,8.0,-100.00,SSE,165,4.0,8.0,64,0.00,,,-99.99,,2013-01-13 23:12:00,
2013-01-13 16:22:00,19.0,8.0,-100.00,South,180,5.0,7.0,64,0.00,,,-99.99,,2013-01-13 23:22:00,
2013-01-13 16:32:00,19.0,8.0,-100.00,South,190,4.0,7.0,64,0.00,,,-99.99,,2013-01-13 23:32:00,
2013-01-13 16:42:00,19.0,8.0,-100.00,South,190,4.0,7.0,64,0.00,,,-99.99,,2013-01-13 23:42:00,
2013-01-13 16:52:00,19.0,8.0,-100.00,South,190,4.0,7.0,64,0.00,,,-99.99,,2013-01-13 23:52:00,
2013-01-13 17:02:00,18.0,8.0,-100.00,South,190,4.0,7.0,64,0.00,,,-99.99,,2013-01-14 00:02:00,
2013-01-13 17:12:00,18.0,8.0,-100.00,South,190,4.0,7.0,64,0.00,,,-99.99,,2013-01-14 00:12:00,
2013-01-13 17:22:00,17.0,7.0,-100.00,South,190,4.0,7.0,64,0.00,,,-99.99,,2013-01-14 00:22:00,
2013-01-13 17:32:00,17.0,7.0,-100.00,South,180,5.0,9.0,64,0.00,,,-99.99,,2013-01-14 00:32:00,
2013-01-13 17:42:00,16.0,6.0,-100.00,South,180,6.0,8.0,64,0.00,,,-99.99,,2013-01-14 00:42:00,
2013-01-13 17:52:00,15.0,5.0,-100.00,South,175,6.0,7.0,64,0.00,,,-99.99,,2013-01-14 00:52:00,
2013-01-13 18:02:00,15.0,5.0,-100.00,South,180,4.0,8.0,65,0.00,,,-99.99,,2013-01-14 01:02:00,
2013-01-13 18:12:00,15.0,5.0,-100.00,South,180,3.0,7.0,65,0.00,,,-99.99,,2013-01-14 01:12:00,
2013-01-13 18:22:00,14.0,5.0,-100.00,South,180,0.0,3.0,65,0.00,,,-99.99,,2013-01-14 01:22:00,
2013-01-13 18:32:00,14.0,5.0,-100.00,South,190,6.0,6.0,66,0.00,,,-99.99,,2013-01-14 01:32:00,
2013-01-13 18:42:00,14.0,5.0,-100.00,South,175,4.0,6.0,67,0.00,,,-99.99,,2013-01-14 01:42:00,
2013-01-13 18:52:00,13.0,5.0,-100.00,South,180,4.0,7.0,67,0.00,,,-99.99,,2013-01-14 01:52:00,
2013-01-13 19:02:00,13.0,4.0,-100.00,SSE,150,2.0,4.0,68,0.00,,,-99.99,,2013-01-14 02:02:00,
2013-01-13 19:12:00,12.0,4.0,-100.00,SE,140,3.0,4.0,68,0.00,,,-99.99,,2013-01-14 02:12:00,
2013-01-13 19:22:00,11.0,3.0,-100.00,SE,130,1.0,3.0,69,0.00,,,-99.99,,2013-01-14 02:22:00,
2013-01-13 19:32:00,11.0,3.0,-100.00,SE,135,0.0,2.0,69,0.00,,,-99.99,,2013-01-14 02:32:00,
2013-01-13 19:42:00,10.0,2.0,-100.00,South,180,0.0,4.0,70,0.00,,,-99.99,,2013-01-14 02:42:00,
2013-01-13 19:53:00,10.0,2.0,-100.00,East,95,0.0,0.0,70,0.00,,,-99.99,,2013-01-14 02:53:00,
2013-01-13 20:02:00,9.0,2.0,-100.00,East,95,0.0,0.0,71,0.00,,,-99.99,,2013-01-14 03:02:00,
2013-01-13 20:12:00,9.0,2.0,-100.00,South,180,0.0,2.0,71,0.00,,,-99.99,,2013-01-14 03:12:00,
2013-01-13 20:22:00,9.0,2.0,-100.00,North,5,0.0,2.0,72,0.00,,,-99.99,,2013-01-14 03:22:00,
2013-01-13 20:32:00,9.0,2.0,-100.00,SE,130,0.0,0.0,73,0.00,,,-99.99,,2013-01-14 03:32:00,
2013-01-13 20:42:00,9.0,2.0,-100.00,NW,310,0.0,1.0,73,0.00,,,-99.99,,2013-01-14 03:42:00,
2013-01-13 20:52:00,9.0,3.0,-100.00,NNW,345,3.0,4.0,74,0.00,,,-99.99,,2013-01-14 03:52:00,
2013-01-13 21:02:00,10.0,3.0,-100.00,NNW,340,4.0,6.0,74,0.00,,,-99.99,,2013-01-14 04:02:00,
2013-01-13 21:12:00,10.0,4.0,-100.00,North,355,2.0,5.0,74,0.00,,,-99.99,,2013-01-14 04:12:00,
2013-01-13 21:22:00,11.0,4.0,-100.00,NNW,340,4.0,4.0,73,0.00,,,-99.99,,2013-01-14 04:22:00,
2013-01-13 21:32:00,11.0,3.0,-100.00,NNW,345,4.0,6.0,71,0.00,,,-99.99,,2013-01-14 04:32:00,
2013-01-13 21:42:00,10.0,3.0,-100.00,North,355,4.0,6.0,70,0.00,,,-99.99,,2013-01-14 04:42:00,
2013-01-13 21:52:00,10.0,2.0,-100.00,NNW,345,5.0,6.0,67,0.00,,,-99.99,,2013-01-14 04:52:00,
2013-01-13 22:03:00,11.0,2.0,-100.00,North,355,6.0,8.0,65,0.00,,,-99.99,,2013-01-14 05:03:00,
2013-01-13 22:12:00,11.0,1.0,-100.00,North,0,6.0,11.0,63,0.00,,,-99.99,,2013-01-14 05:12:00,
2013-01-13 22:22:00,10.0,0.0,-100.00,North,0,6.0,8.0,63,0.00,,,-99.99,,2013-01-14 05:22:00,
2013-01-13 22:32:00,11.0,0.0,-100.00,NNW,345,6.0,9.0,62,0.00,,,-99.99,,2013-01-14 05:32:00,
2013-01-13 22:42:00,11.0,0.0,-100.00,North,0,6.0,9.0,61,0.00,,,-99.99,,2013-01-14 05:42:00,
2013-01-13 22:52:00,11.0,0.0,-100.00,NNW,345,7.0,11.0,60,0.00,,,-99.99,,2013-01-14 05:52:00,
2013-01-13 23:02:00,10.0,-1.0,-100.00,North,0,6.0,10.0,59,0.00,,,-99.99,,2013-01-14 06:02:00,
2013-01-13 23:12:00,10.0,-1.0,-100.00,North,350,6.0,12.0,59,0.00,,,-99.99,,2013-01-14 06:12:00,
2013-01-13 23:22:00,10.0,-1.0,-100.00,North,0,6.0,10.0,58,0.00,,,-99.99,,2013-01-14 06:22:00,
2013-01-13 23:32:00,10.0,-2.0,-100.00,North,0,7.0,11.0,58,0.00,,,-99.99,,2013-01-14 06:32:00,
2013-01-13 23:42:00,10.0,-2.0,-100.00,North,0,8.0,12.0,58,0.00,,,-99.99,,2013-01-14 06:42:00,
2013-01-13 23:52:00,10.0,-2.0,-100.00,NNW,340,10.0,12.0,57,0.00,,,-99.99,,2013-01-14 06:52:00,